Location: DaltonSkyGazer Observatory
(42.4858°N, 73.1565°W)
Time: 17:56:28
(UTC-04:00)

Helios 1B - Visible Passes

Search period start: 27 May 2015 00:00
Search period end: 06 June 2015 00:00
Orbit: 623 x 626 km, 98.1° (Epoch: 27 May)

Date Brightness Start Highest point End Pass type
(mag) Time Alt. Az. Time Alt. Az. Time Alt. Az.
27 May 7.1 01:11:52 11° W 01:11:52 11° W 01:12:32 10° WNW visible
27 May 6.9 22:16:18 10° E 22:17:39 12° ENE 22:19:13 10° NE visible
27 May 4.6 23:53:28 75° WNW 23:53:28 75° WNW 23:57:41 10° NNW visible
28 May 6.5 22:35:04 16° E 22:36:09 17° ENE 22:39:05 10° NNE visible
29 May 5.2 00:12:19 46° W 00:12:19 46° W 00:16:15 10° NNW visible
29 May 5.9 22:53:55 24° E 22:54:41 26° ENE 22:58:20 10° NNE visible
30 May 5.9 00:31:10 29° W 00:31:10 29° W 00:34:38 10° NW visible
30 May 5.3 23:12:46 38° E 23:13:17 39° ENE 23:17:21 10° N visible
31 May 6.5 00:50:02 19° W 00:50:02 19° W 00:52:45 10° NW visible
31 May 4.6 23:31:37 61° E 23:31:54 62° ENE 23:36:13 10° N visible
01 Jun 7.0 01:08:53 12° W 01:08:53 12° W 01:10:14 10° WNW visible
01 Jun 7.0 22:14:06 10° ENE 22:14:56 11° ENE 22:16:00 10° NE visible
01 Jun 4.4 23:50:29 82° SW 23:50:33 82° WSW 23:54:56 10° NNW visible
02 Jun 6.6 22:32:05 14° E 22:33:25 16° ENE 22:36:11 10° NNE visible
03 Jun 5.0 00:09:20 51° W 00:09:20 51° W 00:13:31 10° NNW visible
03 Jun 6.1 22:50:56 22° E 22:51:58 24° ENE 22:55:29 10° NNE visible
04 Jun 5.8 00:28:11 32° W 00:28:11 32° W 00:31:56 10° NNW visible
04 Jun 5.4 23:09:47 34° E 23:10:31 36° ENE 23:14:32 10° N visible
05 Jun 6.4 00:47:03 21° W 00:47:03 21° W 00:50:06 10° NW visible
05 Jun 4.8 23:28:39 53° ESE 23:29:07 57° ENE 23:33:24 10° N visible
